CAPE
498 523 526 511 483 396 244 216 180 143 156 252 357 470 539 715 778 837 895 933 941 913 886 846 825 816 794 787 769 730 706 694 667 670 660 697 742 769 800 862 914 960 1007 1241 1395 1520 1617 1588 1661 1708 1708 1681 1788 1850 1876 2119 2277 2415 2459 2516 2518 2596 2595
403 479 513 525 507 479 259 242 210 182 143 160 235 372 471 612 733 784 852 898 920 928 920 911 912 904 903 883 854 800 745 746 780 869 719 730 752 788 819 859 884 922 934 1073 1270 1401 1506 1547 1614 1644 1669 1715 1770 1800 1897 2042 2212 2341 2435 2424 2490 2506 2502
298 402 446 475 502 509 474 248 220 218 191 164 185 248 381 531 665 742 800 848 881 908 905 929 958 986 967 967 915 877 844 834 818 794 756 765 786 822 860 874 882 886 902 892 1041 1260 1490 1497 1556 1607 1615 1621 1718 1740 1889 2030 2210 2295 2377 2403 2452 2514 2462
222 329 394 430 470 497 498 478 285 250 241 214 209 220 287 424 518 675 752 810 848 873 885 896 949 994 1020 1007 992 980 963 951 938 913 874 834 829 860 879 892 888 876 882 871 824 1118 1434 1457 1522 1583 1935 1603 1657 1755 1860 2044 2156 2295 2366 2395 2419 2455 2498
109 222 313 373 433 468 493 388 308 275 274 263 239 283 257 319 425 538 685 749 799 841 858 882 904 973 1006 1013 1037 1048 1051 1041 1032 1008 975 932 903 892 886 908 907 892 874 845 788 1098 1347 1436 1456 1517 1637 1663 1647 1714 1882 2001 2112 2252 2336 2363 2433 2394 2430
44 129 231 309 368 430 481 517 524 493 404 284 273 289 277 288 366 478 569 698 756 786 822 850 888 1049 1012 1024 1043 1063 1068 1074 1074 1063 1038 1002 980 941 925 918 924 927 894 852 789 888 1161 1373 1421 1443 1488 1603 1630 1690 1815 1990 2118 2203 2334 2363 2398 2426 2398
24 41 100 230 295 358 436 494 535 546 542 374 291 322 352 311 364 446 514 647 720 772 814 845 874 934 1007 1025 1046 1064 1076 1086 1092 1093 1066 1032 996 976 958 955 950 936 917 867 824 815 1060 1282 1394 1438 1472 1542 1619 1630 1711 1897 2073 2218 2353 2401 2428 2425 2419
18 36 51 156 218 279 358 450 514 556 558 542 283 321 373 362 373 430 502 574 683 743 801 844 878 938 1021 1039 1060 1079 1090 1081 1084 1096 1094 1060 1041 1010 1007 1000 968 952 920 877 863 842 1023 1187 1326 1420 1446 1500 1575 1629 1657 1785 1962 2131 2333 2419 2453 2440 2371
6 46 57 58 149 199 278 366 471 524 559 593 602 571 413 414 430 511 506 542 631 698 767 822 880 929 1018 1075 1090 1109 1112 1107 1103 1114 1111 1086 1064 1058 1053 1034 1018 979 920 888 869 1007 1058 1131 1221 1372 1428 1446 1522 1584 1633 1710 1849 2011 2236 2358 2437 2479 2449
0 15 46 60 58 65 118 235 387 474 526 584 606 592 493 475 495 502 544 591 635 687 728 774 834 903 990 1079 1128 1138 1144 1147 1146 1137 1133 1125 1106 1108 1085 1059 1029 1000 934 915 876 1025 1204 1199 1229 1320 1401 1421 1475 1495 1625 1694 1775 1897 2073 2266 2369 2425 2464
0 2 33 57 70 81 103 167 301 466 534 585 612 615 593 546 555 578 601 631 666 694 719 755 796 862 946 1042 1117 1155 1179 1188 1171 1164 1162 1157 1168 1160 1118 1082 1033 978 1008 1084 1026 974 1140 1339 1358 1373 1413 1446 1478 1488 1537 1660 1752 1868 1952 2127 2244 2338 2401
0 0 8 46 81 86 107 213 391 496 570 606 620 624 620 631 639 651 675 683 694 706 729 757 789 837 897 981 1072 1150 1190 1212 1199 1182 1169 1168 1175 1177 1140 1082 1030 988 982 1117 1193 1179 1139 1250 1409 1498 1526 1542 1563 1554 1535 1573 1686 1812 1921 2009 2136 2258 2333
0 0 0 13 58 92 154 279 413 518 603 648 664 659 659 672 705 760 768 769 760 762 765 782 800 827 858 915 994 1081 1142 1189 1194 1179 1159 1159 1152 1133 1110 1079 1039 997 987 1171 1188 1235 1259 1235 1327 1524 1600 1636 1666 1670 1657 1597 1613 1748 1872 1962 2097 2216 2310
0 0 0 4 29 70 174 345 476 559 634 679 695 691 696 714 764 826 857 867 851 839 835 835 837 836 861 908 954 1018 1084 1124 1141 1140 1132 1118 1116 1113 1091 1062 1046 1033 1018 1171 1235 1263 1302 1331 1315 1409 1568 1624 1645 1724 1745 1708 1683 1702 1812 1937 2041 2155 2217
0 0 0 0 5 42 186 403 538 622 683 730 733 727 737 760 798 848 926 945 951 940 932 915 896 894 898 942 990 1018 1054 1080 1092 1110 1106 1103 1108 1114 1100 1089 1078 1064 1056 1086 1220 1296 1362 1430 1475 1453 1480 1586 1667 1704 1730 1740 1756 1766 1799 1876 2008 2138 2208
0 0 0 0 0 34 200 414 599 691 738 773 789 794 796 803 845 915 987 1045 1084 1072 1032 990 983 970 963 979 1029 1066 1074 1099 1129 1124 1139 1154 1162 1160 1139 1123 1116 1111 1114 1110 1115 1218 1326 1417 1539 1614 1604 1641 1689 1744 1764 1778 1797 1759 1734 1757 1963 2048 2160
0 0 0 0 18 42 212 400 620 732 793 835 860 864 864 880 890 959 1019 1084 1153 1196 1198 1146 1101 1052 1050 1040 1030 1125 1206 1265 1296 1270 1192 1211 1203 1190 1188 1183 1178 1180 1180 1171 1170 1168 1179 1302 1323 1472 1650 1742 1770 1805 1840 1870 1854 1747 1755 1787 1814 1922 2113
0 0 0 4 26 75 224 429 646 768 861 916 941 942 945 944 957 984 1068 1119 1196 1274 1325 1320 1330 1256 1248 1216 1274 1303 1330 1362 1423 1437 1405 1269 1254 1243 1238 1242 1251 1267 1266 1260 1292 1272 1215 1201 1192 1264 1354 1516 1702 1818 1859 1924 1825 1832 1842 1827 1822 1832 1966
0 0 0 13 50 155 256 524 698 825 913 976 1008 1026 1031 1051 1065 1090 1144 1183 1241 1328 1495 1486 1503 1495 1492 1464 1466 1494 1482 1488 1533 1558 1551 1505 1373 1339 1334 1346 1359 1374 1389 1396 1417 1458 1472 1357 1260 1238 1210 1190 1375 1512 1730 1889 1788 1836 1893 1927 1926 1919 1907
0 0 3 31 81 193 321 584 725 858 939 1012 1069 1093 1095 1093 1156 1177 1178 1225 1354 1504 1637 1693 1705 1692 1677 1670 1672 1665 1641 1638 1632 1646 1648 1633 1530 1508 1492 1484 1495 1499 1515 1527 1542 1616 1636 1603 1451 1339 1318 1287 1246 1337 1407 1566 1635 1722 1814 1892 1949 1993 2006
0 0 0 17 84 201 340 632 777 886 972 1034 1092 1106 1085 1131 1184 1196 1240 1283 1454 1608 1790 1848 1889 1875 1891 1897 1878 1864 1848 1819 1794 1769 1754 1698 1661 1664 1662 1655 1647 1651 1667 1668 1722 1805 1848 1815 1737 1608 1456 1384 1338 1307 1269 1341 1319 1492 1668 1783 1864 1942 2002
0 0 0 3 81 184 324 692 822 945 1036 1086 1128 1142 1126 1190 1228 1287 1334 1334 1487 1654 1822 2002 2064 2054 2073 2104 2078 2068 2032 1992 1961 1934 1920 1811 1790 1803 1808 1807 1807 1821 1811 1925 2031 2087 2123 2113 2052 1961 1834 1668 1516 1425 1389 1486 1316 1318 1419 1592 1751 1851 1930
12 0 0 0 11 55 629 748 869 967 1059 1127 1160 1173 1183 1208 1257 1315 1382 1437 1500 1676 1842 2032 2167 2214 2267 2295 2255 2255 2220 2175 2136 2118 2089 1977 1958 1972 1976 1969 1970 1970 2104 2284 2365 2463 2458 2426 2400 2307 2212 2084 1926 1800 1587 1597 1514 1459 1427 1451 1564 1697 1826
1644 483 173 134 132 578 673 790 894 997 1088 1168 1201 1233 1240 1248 1267 1280 1416 1492 1576 1692 1869 2026 2194 2290 2375 2421 2426 2436 2397 2359 2326 2297 2274 2155 2153 2144 2130 2154 2307 2413 2540 2621 2719 2782 2787 2785 2794 2712 2567 2420 2275 2142 1977 1796 1632 1568 1558 1546 1550 1616 1700
2280 1857 1012 577 575 670 726 832 912 1014 1076 1165 1243 1283 1300 1295 1299 1311 1427 1542 1608 1700 1882 2115 2229 2322 2388 2484 2507 2550 2561 2527 2498 2460 2364 2301 2439 2531 2611 2702 2762 2812 2857 2902 2945 2990 3030 3083 3081 3028 2926 2787 2636 2451 2301 2151 1988 1804 1655 1649 1670 1693 1716
2434 2388 2312 2142 1732 1642 1886 2123 1888 1299 1113 1149 1222 1277 1327 1333 1346 1508 1531 1572 1630 1715 1842 2038 2312 2438 2469 2530 2619 2669 2710 2694 2698 2540 2635 2763 2872 2910 2983 3004 3022 3055 3083 3098 3117 3137 3178 3227 3260 3272 3245 3138 2983 2818 2657 2488 2332 2152 1967 1784 1774 1799 1810
2461 2418 2436 2533 2681 2866 2523 2489 2446 2517 2576 2727 2620 1495 1226 1299 1410 1753 1819 1718 1724 1811 1880 1967 2160 2421 2667 2824 2888 2906 2636 2620 2666 2708 2739 2793 2888 2954 3018 3084 3127 3153 3188 3230 3249 3269 3304 3339 3377 3398 3410 3395 3328 3194 3040 2861 2669 2468 2251 2039 1871 1860 1884
2432 2411 2466 2530 2638 2607 2656 2800 2922 3074 3224 3336 3224 2357 1770 1819 2278 2468 2371 2089 2321 3018 3395 3474 2950 2273 2530 2756 3042 3213 3234 3186 2843 2848 2860 2902 2960 2998 3100 3160 3217 3254 3304 3328 3351 3382 3413 3433 3450 3484 3500 3499 3492 3422 3338 3174 2988 2797 2606 2404 2199 2001 1920
2588 2589 2623 2698 2796 2936 3129 3182 3231 3210 3236 3199 2962 2770 2707 2741 2805 2804 2704 2727 3051 3423 3717 3932 3868 3436 2374 2447 2719 3048 3398 3425 3252 3265 3227 3216 3227 3260 3298 3326 3357 3388 3398 3408 3452 3478 3515 3547 3570 3579 3580 3568 3559 3528 3468 3373 3244 3058 2872 2696 2529 2369 2279
2677 2685 2654 2707 2869 3100 3284 3463 3552 3544 3383 3100 2859 2767 2770 2774 2895 2934 2992 3205 3563 3702 3854 3990 4099 4103 3680 3022 3214 3313 3336 3340 3569 3398 3413 3448 3347 3397 3439 3504 3529 3530 3534 3553 3550 3564 3587 3614 3640 3662 3673 3648 3627 3592 3533 3464 3374 3242 3088 2921 2777 2678 2644
2712 2743 2645 2640 2714 2816 2984 3177 3435 3574 3564 3431 3320 3205 3164 3205 3298 3303 3263 3462 3622 3727 3810 3986 4172 4395 4519 3940 3392 3374 3370 3369 3379 3562 3713 3735 3648 3543 3466 3427 3477 3532 3557 3604 3616 3650 3677 3705 3726 3740 3734 3701 3680 3641 3581 3501 3430 3353 3234 3090 2956 2887 2894
2664 2656 2647 2594 2588 2614 2685 2759 2900 3076 3271 3430 3462 3442 3394 3421 3451 3489 3420 3550 3708 3657 3692 3829 4031 4122 4331 4515 4307 3617 3229 3139 3147 3343 3554 3688 3702 3705 3678 3646 3632 3645 3673 3693 3728 3742 3756 3766 3771 3769 3754 3750 3713 3678 3631 3558 3499 3433 3321 3200 3058 3086 3141
2424 2477 2513 2551 2519 2583 2621 2693 2775 2829 2833 2814 2785 2948 3070 3161 3116 3074 3063 3161 3291 3386 3504 3688 3882 4046 4107 4286 4568 4394 3806 3334 3173 3198 3333 3480 3606 3719 3789 3795 3794 3778 3762 3775 3781 3791 3787 3791 3796 3781 3771 3764 3730 3706 3657 3609 3558 3496 3404 3318 3274 3338 3448
2248 2236 2121 2108 1947 2068 1988 1791 1691 1522 1354 1322 1310 1367 1538 1714 1895 1999 2228 2388 2529 2807 3072 3482 3729 3968 4090 4278 4541 4488 4322 3905 3236 3108 3066 3309 3491 3652 3770 3840 3875 3871 3868 3840 3821 3809 3805 3796 3772 3757 3741 3724 3719 3702 3672 3628 3590 3539 3492 3455 3529 3680 3788
1885 1794 1686 1499 1481 1568 1546 1520 1447 1355 1280 1200 1133 1043 1004 1151 1275 1338 1362 1596 1866 2150 2666 3210 3659 3958 4080 4303 4588 4696 4412 4157 3920 3464 3019 3015 3244 3473 3666 3814 3861 3903 3906 3866 3835 3786 3772 3712 3694 3698 3676 3666 3677 3681 3677 3656 3667 3707 3788 3926 4027 4105 4181
1495 1504 1332 1356 1468 1480 1454 1392 1293 1223 1122 1034 955 965 1092 1260 1358 1398 1531 1848 2170 2378 2833 3250 3623 3958 4116 4229 4611 4854 4662 4327 4064 3730 3443 3118 3144 3275 3410 3567 3739 3880 3907 3956 3873 3850 3849 3772 3786 3780 3764 3764 3825 3894 3991 4061 4138 4193 4266 4317 4319 4370 4401
1273 1349 1492 1499 1500 1442 1453 1398 1278 1103 1022 960 952 972 1140 1286 1421 1482 1745 2144 2448 2845 3214 3491 3786 3994 4188 4234 4745 4944 4882 4592 4288 3971 3697 3443 3328 3291 3346 3326 3445 3666 3828 3819 3893 3911 3874 3881 3895 3869 3866 3906 4074 4254 4327 4346 4352 4386 4470 4573 4613 4583 4566
1300 1483 1543 1506 1490 1471 1428 1385 1302 1189 995 951 930 996 1199 1382 1489 1646 1802 1964 2194 2718 3339 3664 3845 3979 4143 4291 4723 5035 5114 4994 4633 4266 3963 3743 3607 3532 3462 3458 3403 3428 3672 3840 3915 3874 3969 3987 3957 3979 4073 4263 4357 4428 4590 4646 4710 4718 4725 4731 4689 4665 4583
Wind_Speed
5 7 9 11 11 9 6 2 1 3 3 2 2 1 1 4 6 7 7 4 1 2 3 4 6 7 6 7 8 10 10 8 9 8 8 7 6 6 6 8 8 8 8 6 6 6 7 6 6 7 7 8 9 9 10 11 12 12 13 13 13 14 15
15 13 11 12 12 8 5 5 6 6 5 4 3 2 1 1 4 6 6 4 2 1 2 4 6 8 7 8 10 10 9 7 8 10 9 8 8 7 7 9 10 9 8 8 8 8 7 5 5 5 6 7 7 6 7 7 9 9 9 10 10 11 11
16 15 14 14 13 8 5 8 9 6 5 5 3 1 2 1 1 3 6 6 5 4 4 4 6 7 9 10 11 10 9 9 10 9 7 6 5 5 8 11 12 11 9 9 9 9 8 6 5 5 5 6 6 5 4 5 5 5 6 6 6 7 8
16 15 14 13 11 8 5 7 7 6 6 3 2 4 2 1 3 7 8 7 6 6 4 5 7 8 10 10 10 11 9 9 9 9 8 8 7 9 11 12 13 13 12 8 9 9 9 6 5 4 4 5 5 4 3 3 3 3 2 2 3 4 5
15 15 16 16 13 12 11 11 11 10 6 2 1 1 2 4 7 9 9 9 8 6 6 6 9 11 13 12 14 14 12 11 12 12 11 10 10 11 10 11 12 11 10 11 11 10 8 6 6 5 4 4 4 4 3 2 2 1 0 2 1 2 2
nan 16 17 16 14 12 11 11 10 8 6 4 3 3 3 6 8 7 8 10 10 11 12 11 10 11 12 13 14 15 15 14 14 14 13 11 11 10 9 11 11 12 12 10 12 9 7 6 5 5 4 5 4 4 3 2 2 1 0 2 1 1 1
nan nan 17 16 13 12 11 12 13 11 9 8 8 11 11 9 7 8 11 11 11 10 10 9 9 10 11 14 14 14 13 13 14 14 15 12 10 10 10 12 13 13 13 15 12 11 8 5 4 4 3 3 3 2 2 1 1 2 2 2 1 2 1
nan nan nan 15 14 14 13 13 14 14 15 17 17 13 9 7 9 10 10 10 12 11 10 9 10 11 11 13 14 13 14 14 15 15 15 12 11 9 11 12 13 14 15 12 11 10 8 5 5 5 3 4 2 2 1 2 2 3 4 2 1 1 3
nan nan nan nan 12 14 14 14 16 17 17 17 12 9 7 7 7 7 9 12 12 11 9 10 11 12 14 13 12 12 14 15 15 15 13 11 11 11 12 14 14 15 14 12 12 10 8 6 5 5 5 4 4 3 3 4 4 5 5 3 2 2 3
nan nan nan nan nan nan 14 17 20 23 21 18 16 15 11 8 7 9 11 12 13 10 10 12 14 14 15 14 13 12 14 14 15 14 14 13 13 12 13 16 16 16 13 12 13 11 9 7 7 7 6 5 5 5 5 5 6 7 6 5 4 3 2
nan nan nan nan nan nan 15 21 22 21 19 18 17 16 12 9 8 8 10 13 12 12 14 14 15 15 14 14 14 13 13 13 14 14 12 13 15 14 15 15 17 16 13 13 12 10 10 10 9 8 7 6 5 5 6 6 8 8 8 7 6 5 4
nan nan nan nan nan nan 17 19 19 19 19 19 18 16 13 10 9 9 11 12 14 16 17 16 16 14 13 14 14 13 12 12 13 13 12 12 13 14 15 15 14 13 15 13 11 11 12 9 10 8 6 6 5 6 7 7 8 8 8 9 9 8 7
nan nan nan nan nan nan 20 21 19 18 18 19 18 16 15 12 11 11 12 13 15 17 18 18 17 15 13 13 13 14 12 12 12 13 13 12 13 16 16 15 15 14 14 15 13 13 13 12 10 9 7 6 7 7 8 8 8 9 9 10 10 10 9
nan nan nan nan nan nan 23 17 18 19 19 20 20 19 18 15 13 13 13 13 16 18 20 20 17 15 13 13 12 12 11 12 13 14 14 16 17 18 16 15 14 14 15 16 14 13 12 12 10 10 9 8 8 8 9 8 9 10 11 11 11 11 10
nan nan nan nan nan nan 24 20 21 20 20 20 21 21 19 18 17 18 18 18 17 18 18 19 18 15 13 12 11 11 13 15 16 17 18 18 19 18 17 16 16 16 16 15 14 15 13 12 11 9 8 9 9 8 8 8 9 11 12 12 10 10 9
nan nan nan nan nan nan 23 20 22 23 22 22 22 21 20 20 19 17 16 15 16 17 19 20 17 15 13 11 10 13 16 17 19 19 19 19 18 18 17 18 17 16 15 14 13 14 13 12 10 10 10 10 9 8 8 8 10 10 13 12 10 9 9
nan nan nan nan nan nan 22 22 26 27 25 23 21 21 20 19 16 16 16 16 16 16 18 18 17 15 12 11 13 16 18 20 20 21 20 19 20 20 18 16 16 15 15 15 14 13 12 12 10 10 11 10 10 9 9 9 9 10 11 11 10 8 7
nan nan nan nan nan nan 23 25 29 28 24 20 20 20 20 20 18 17 15 14 14 16 18 18 16 14 13 13 16 18 18 19 20 20 20 20 19 18 18 17 15 14 14 14 12 13 13 11 10 10 11 11 10 9 9 9 7 9 10 9 9 8 6
nan nan nan nan nan 22 22 22 24 23 20 19 20 20 18 17 16 13 13 13 14 18 17 16 16 16 16 16 16 17 19 20 20 19 20 19 18 19 18 15 13 12 12 11 11 12 11 10 10 10 10 10 9 8 9 10 8 9 9 9 9 9 7
nan nan nan nan nan 20 21 23 22 21 19 17 16 16 18 17 14 16 18 19 20 17 17 16 16 16 16 16 16 17 19 19 18 18 17 18 18 17 15 13 11 10 12 12 12 11 10 9 9 9 9 9 9 9 10 9 8 10 10 9 10 10 9
nan nan nan nan nan 25 25 22 21 22 22 22 23 26 26 26 28 29 25 21 18 18 17 15 15 15 16 15 16 18 18 17 16 16 16 16 15 15 12 11 12 11 12 13 12 11 9 9 9 9 9 10 10 10 10 10 8 9 9 9 10 10 10
nan nan nan nan nan 24 25 25 24 23 23 27 28 27 24 24 26 26 23 21 20 18 17 16 15 15 16 15 15 15 15 15 15 14 15 14 14 14 12 12 12 12 14 14 12 12 11 11 11 10 10 10 11 11 9 9 8 9 8 9 9 12 10
nan nan nan nan nan nan 29 31 31 32 34 32 29 28 26 27 28 28 26 22 20 19 18 17 15 15 15 15 15 15 14 14 14 13 14 14 14 13 12 12 12 13 15 14 13 12 12 11 11 12 12 12 12 11 10 10 8 9 8 8 11 13 10
31 23 24 28 30 32 34 36 38 37 36 36 33 30 30 29 30 30 26 22 21 19 18 16 14 15 16 15 14 14 13 13 12 12 12 13 11 10 10 10 11 11 14 12 12 12 13 14 14 14 14 12 12 13 14 13 11 10 9 10 13 12 11
35 28 25 26 28 30 32 32 32 34 37 38 36 34 32 32 32 31 27 24 22 20 18 16 15 16 15 14 13 12 11 11 10 10 10 10 8 8 8 9 9 10 13 12 12 13 16 16 16 16 16 16 14 14 14 14 13 11 11 12 14 12 11
40 32 31 34 35 33 33 33 33 33 33 33 33 34 34 33 32 29 27 24 23 21 18 17 16 16 15 14 14 12 11 11 9 9 9 8 8 10 10 12 14 14 14 13 14 14 17 17 18 16 18 18 18 18 17 15 14 14 13 15 15 14 13
40 33 34 39 40 37 36 35 34 34 34 34 34 35 35 32 31 29 29 27 25 21 20 21 21 20 19 18 16 14 12 12 10 9 9 10 10 10 11 15 15 15 16 16 16 15 15 16 18 19 19 20 21 20 19 18 16 15 17 16 17 16 15
41 37 39 44 47 43 40 40 40 40 40 37 35 37 37 34 33 33 33 32 30 30 31 29 26 24 22 19 16 15 14 13 13 12 13 13 15 15 14 14 15 16 16 18 17 15 14 16 18 20 21 23 23 22 20 19 17 18 19 18 17 17 17
41 38 41 48 51 49 44 44 45 44 42 39 40 40 39 37 36 36 37 37 33 31 32 31 30 28 26 24 21 19 17 16 14 15 16 17 17 16 15 16 16 16 17 17 16 15 15 15 18 20 21 23 24 24 23 23 22 18 20 20 20 20 19
43 40 43 49 52 51 49 49 49 48 45 43 43 42 39 39 38 38 39 38 34 35 34 33 31 31 29 27 25 23 21 20 18 17 18 18 20 19 18 20 19 18 18 17 16 16 15 15 17 19 20 22 23 24 24 25 25 23 20 23 23 21 21
45 43 44 48 52 52 53 54 53 51 49 47 46 42 40 40 41 41 41 36 36 35 36 35 35 34 33 31 28 26 24 23 22 21 21 21 22 22 22 21 22 21 20 20 17 16 15 15 17 17 17 19 21 23 25 25 26 26 25 23 25 23 22
47 44 46 48 51 52 51 50 49 48 48 47 44 41 40 41 41 42 37 36 37 37 38 39 39 39 38 37 34 31 30 28 26 25 24 25 26 24 24 24 24 22 23 23 20 17 17 16 17 16 16 17 19 22 23 25 25 25 27 28 24 24 22
47 46 47 50 50 49 48 44 42 41 42 42 40 40 41 42 42 41 40 41 41 41 41 43 43 43 42 40 39 39 36 31 30 30 29 28 29 28 28 28 26 25 25 25 24 22 20 20 19 18 17 17 19 20 23 24 25 27 30 32 30 28 28
49 47 49 50 51 50 48 45 42 39 38 39 38 40 41 43 44 44 44 44 45 45 45 47 46 45 44 42 41 42 39 36 33 32 32 32 32 32 32 31 29 27 27 27 27 27 25 24 23 21 20 18 19 21 23 24 26 27 28 30 30 30 31
50 48 48 51 51 51 49 45 44 41 39 37 37 39 42 44 44 45 46 45 46 46 47 46 46 46 46 46 44 43 41 40 38 38 38 43 47 48 46 40 36 31 30 33 33 31 31 29 28 26 26 25 23 23 22 22 24 20 24 26 28 30 32
52 51 50 49 49 50 49 47 44 41 39 37 38 39 39 40 40 41 42 44 45 45 45 45 45 47 49 49 47 47 45 45 45 46 47 48 48 48 50 53 50 47 41 40 42 43 39 36 31 31 31 30 29 28 24 21 21 32 32 30 31 30 30
54 52 51 50 50 50 48 46 43 40 40 38 39 39 38 38 38 39 40 41 41 40 41 41 44 46 46 47 48 47 48 50 51 50 50 50 50 50 50 50 55 60 58 51 49 49 49 45 40 38 37 35 34 35 41 38 40 39 38 39 38 38 39
56 55 53 51 50 49 48 46 44 41 40 38 39 39 38 38 38 37 36 37 37 37 37 38 41 42 42 44 45 47 49 49 50 51 51 50 50 50 50 52 53 55 60 60 58 58 57 55 53 47 41 41 44 43 40 41 42 43 43 44 45 45 46
Wind_Direction
227 239 252 263 259 255 259 267 319 280 303 310 295 308 223 187 186 197 191 192 127 133 151 155 150 162 163 182 200 209 209 199 186 189 208 213 218 225 209 187 181 174 177 165 153 131 125 137 116 111 110 98 93 85 78 78 76 77 74 71 71 72 73
199 210 220 237 244 239 241 242 234 234 242 251 253 281 202 181 192 194 189 190 155 121 163 159 159 161 165 179 194 203 209 200 191 199 212 215 216 213 208 198 191 187 180 165 161 155 164 150 139 116 106 111 100 94 89 82 74 70 70 68 66 70 70
208 215 211 224 234 225 226 234 231 235 246 242 261 288 31 42 209 216 212 200 185 172 181 169 165 166 173 181 188 192 200 200 198 207 217 221 225 223 213 208 200 197 187 179 175 172 178 179 150 130 120 115 110 108 102 93 83 72 63 56 62 63 61
215 222 218 220 230 230 225 238 245 238 236 264 335 9 358 297 222 217 216 210 200 188 183 181 181 175 180 182 182 187 190 193 198 208 213 216 218 217 218 213 208 205 203 184 182 187 189 186 173 152 133 118 115 127 124 99 104 83 53 23 47 48 54
215 225 227 223 221 218 206 203 210 211 205 189 150 204 243 239 233 220 214 213 208 193 187 198 195 188 185 182 183 185 186 188 194 205 213 214 218 220 218 219 216 210 203 203 204 203 202 197 187 179 157 134 134 140 125 127 118 125 131 332 1 10 38
nan 231 238 236 228 222 210 196 204 209 193 185 179 185 224 249 239 247 233 226 211 200 201 205 203 200 191 186 186 186 188 188 194 206 216 218 223 221 219 219 219 214 214 211 217 215 217 207 194 187 174 172 166 163 161 170 173 211 242 275 306 322 350
nan nan 247 247 239 233 219 196 195 196 194 192 192 196 208 221 243 247 238 233 229 221 213 212 215 215 202 200 194 193 192 193 199 208 216 221 222 221 221 221 219 218 216 221 220 227 227 218 197 184 173 179 184 176 163 173 218 245 254 270 285 294 323
nan nan nan 258 256 251 234 205 197 199 205 209 212 209 208 207 226 245 253 249 242 230 217 218 219 220 218 211 204 201 199 199 204 211 218 224 223 220 224 224 223 224 225 227 224 231 227 221 202 195 197 214 219 228 239 258 281 267 265 272 290 293 266
nan nan nan nan 262 257 243 219 207 212 220 225 229 227 222 212 221 243 258 255 246 242 232 225 224 225 224 220 214 208 207 208 210 215 220 224 221 217 221 222 224 227 229 227 226 225 220 211 200 204 219 228 239 256 264 278 276 272 276 288 303 294 275
nan nan nan nan nan nan 237 223 216 216 220 221 219 220 219 204 205 224 239 249 247 247 241 230 224 226 228 226 220 215 212 211 213 219 220 218 215 215 217 220 222 225 225 226 225 221 208 201 201 209 221 232 243 259 267 279 279 283 290 307 301 286 292
nan nan nan nan nan nan 230 224 224 223 229 231 228 225 218 205 206 221 234 241 246 241 238 231 227 229 230 233 232 226 216 212 214 218 221 216 212 211 216 219 222 221 223 224 220 216 210 198 206 214 223 229 246 261 272 287 292 290 293 294 292 294 279
nan nan nan nan nan nan 237 238 239 237 236 233 231 227 217 207 210 219 228 236 238 237 233 230 227 228 231 231 233 230 226 218 216 218 221 218 211 211 215 217 218 217 213 217 214 212 208 205 212 220 223 229 245 263 275 282 288 299 302 299 294 293 284
nan nan nan nan nan nan 229 233 246 248 242 238 236 225 213 211 215 221 226 233 234 234 234 230 227 226 228 231 233 231 227 223 220 219 219 215 209 211 213 212 212 212 210 213 211 210 207 210 214 215 223 234 250 266 278 285 291 296 303 303 301 299 290
nan nan nan nan nan nan 223 229 240 243 239 237 234 223 211 208 214 223 231 235 231 231 230 224 226 227 228 230 229 227 224 219 219 216 212 209 208 210 211 209 208 207 209 213 210 207 207 213 216 217 227 240 255 267 273 284 289 296 301 301 302 294 287
nan nan nan nan nan nan 215 220 230 239 238 237 238 230 218 212 214 216 219 223 227 229 230 228 227 227 229 230 229 222 218 214 212 210 209 207 207 209 209 209 209 211 212 213 209 208 211 216 220 226 235 246 257 265 270 280 290 289 294 299 300 287 280
nan nan nan nan nan nan 213 221 232 239 241 238 240 235 222 216 219 224 230 231 232 229 228 229 227 226 226 227 224 219 215 211 207 208 208 207 208 209 210 211 212 212 211 210 207 211 217 221 228 236 243 250 258 260 260 269 274 296 322 312 293 283 269
nan nan nan nan nan nan 213 222 230 235 238 238 241 239 229 223 225 226 230 231 233 230 228 229 225 225 225 223 222 220 214 209 205 206 206 206 208 211 213 213 212 209 206 205 208 213 220 228 234 241 246 254 253 253 254 263 277 322 318 323 326 293 274
nan nan nan nan nan nan 215 223 230 238 242 242 241 236 226 222 222 224 226 231 231 228 227 224 221 221 221 222 223 221 216 210 210 207 207 210 212 215 217 216 212 206 204 207 213 219 225 231 240 244 250 251 252 251 255 267 299 322 321 322 328 317 287
nan nan nan nan nan 216 221 228 234 242 245 241 237 232 227 229 226 220 222 227 225 224 222 221 219 219 220 222 223 219 215 213 213 210 211 213 216 218 220 218 213 208 210 216 224 230 236 241 249 252 255 256 258 258 265 270 305 323 326 324 326 330 310
nan nan nan nan nan 220 221 224 226 231 235 233 232 232 229 227 220 211 214 219 220 222 216 218 217 219 221 223 221 220 218 216 215 213 213 216 218 220 220 219 215 215 220 225 232 236 240 249 260 260 259 259 259 257 262 279 304 321 327 326 328 328 310
nan nan nan nan nan 212 219 226 227 222 215 209 214 215 216 212 209 211 213 217 221 218 217 216 217 218 219 219 219 220 218 217 214 211 212 214 216 218 216 217 215 222 228 233 240 245 251 257 262 260 258 257 259 257 263 269 306 311 319 322 325 326 309
nan nan nan nan nan 214 221 222 222 221 212 210 216 218 219 217 214 215 214 216 220 219 217 215 214 214 215 213 215 217 215 214 209 205 208 211 213 215 214 215 220 227 231 233 234 236 239 243 248 255 258 258 260 261 262 261 299 303 305 310 310 311 279
nan nan nan nan nan nan 209 214 217 215 212 212 215 220 220 218 214 214 216 216 218 220 218 215 211 210 212 209 208 208 207 206 205 203 207 213 216 218 219 222 226 229 234 236 236 237 242 245 249 248 250 254 257 262 257 251 273 287 291 290 297 281 262
192 210 224 218 211 212 212 214 217 217 218 216 215 218 220 221 217 216 215 215 217 222 220 216 210 208 209 207 207 206 206 205 205 205 210 218 220 221 220 223 227 234 240 242 241 238 238 239 237 242 247 255 258 259 252 246 252 274 275 284 290 288 265
195 201 214 226 225 216 215 219 224 225 226 225 221 217 221 222 221 217 215 214 216 217 215 207 203 203 202 201 204 203 202 201 201 201 209 216 215 215 218 223 229 234 240 238 238 238 237 238 236 239 244 247 251 259 260 248 247 267 275 283 288 283 254
199 205 213 214 215 216 214 219 226 228 232 231 224 220 222 224 222 218 216 215 214 209 203 198 194 194 193 197 201 196 193 194 196 198 207 210 212 217 220 224 227 234 241 240 240 241 242 244 241 242 242 245 248 251 256 254 248 256 278 283 289 299 268
206 209 210 212 214 211 211 213 220 225 228 225 220 218 221 223 224 220 217 216 211 202 197 196 196 194 193 196 199 197 197 200 205 213 215 220 226 232 234 236 239 244 248 247 249 251 251 254 249 245 243 246 248 250 254 255 254 255 276 282 292 300 291
210 214 209 208 209 206 209 211 218 222 224 220 219 219 221 224 225 221 220 218 213 206 201 201 199 198 198 199 200 203 207 212 216 224 227 231 234 236 238 243 248 250 255 252 256 264 264 261 255 250 247 247 249 250 252 256 268 255 269 283 290 296 305
208 208 206 205 206 200 203 213 217 221 225 221 221 221 223 227 227 224 223 221 213 204 203 202 202 204 202 200 201 206 213 218 228 232 232 237 244 247 247 249 252 253 256 261 265 273 277 274 266 258 251 249 249 249 251 253 255 269 265 278 290 295 301
205 204 205 206 205 202 201 211 215 219 220 221 222 223 223 229 229 226 225 223 213 209 205 206 206 209 208 204 204 210 216 224 231 236 238 244 247 249 250 251 254 256 257 261 268 275 282 278 275 267 258 252 250 250 249 251 252 260 273 272 288 291 303
202 201 203 204 204 202 204 210 216 220 221 222 225 223 220 223 231 229 229 225 224 220 213 209 210 212 212 211 210 214 217 222 228 235 240 244 250 251 251 253 256 256 257 260 264 272 278 280 280 279 268 256 253 252 251 250 251 253 264 278 282 293 299
198 198 200 202 203 205 207 210 215 220 223 223 223 222 219 219 224 230 227 226 227 227 224 220 218 217 216 216 217 217 219 220 221 227 234 240 244 249 252 256 259 259 257 259 261 266 271 276 278 278 270 260 252 252 253 253 251 252 255 262 271 278 290
197 199 200 201 202 206 208 209 213 216 219 221 217 217 217 220 219 222 223 223 224 225 226 225 224 224 223 221 220 222 223 222 223 227 231 235 240 243 247 251 255 257 257 258 260 260 262 265 270 270 268 263 255 252 253 255 255 254 255 258 262 265 269
196 198 199 201 203 207 210 211 213 215 218 219 216 216 217 218 218 218 220 220 222 224 226 226 225 225 227 227 225 227 228 226 227 231 231 234 238 240 242 245 250 255 258 261 262 262 261 262 263 266 267 265 259 256 253 254 258 258 261 261 263 265 266
196 198 198 200 201 206 210 212 215 216 218 219 217 217 217 218 217 217 219 219 220 223 227 227 227 227 228 230 232 233 232 230 231 232 234 235 233 230 229 230 231 240 248 248 248 257 260 260 258 259 257 257 257 260 257 255 259 262 265 267 270 271 267
197 197 198 198 202 205 208 209 212 215 217 217 216 216 216 217 216 216 218 219 220 221 226 226 227 227 226 230 233 234 235 234 233 235 236 237 237 238 235 234 236 232 234 240 234 236 240 252 259 258 259 260 255 252 261 260 255 254 262 262 265 262 264
199 199 199 200 204 205 208 209 212 216 218 215 215 216 216 216 214 213 215 217 219 222 223 225 227 228 227 230 234 237 238 238 237 238 239 240 241 240 241 240 235 234 234 236 237 238 239 243 247 259 266 266 261 250 242 245 255 259 258 256 256 258 261
200 202 202 204 207 208 211 213 214 216 216 213 215 216 215 216 214 211 211 215 219 222 225 227 229 231 230 231 236 240 241 242 243 244 245 245 245 246 247 247 247 243 239 239 242 243 243 242 242 248 260 267 268 264 250 249 256 263 263 262 261 260 260